| time (UTC) | temp F | wind direction | speed knots | gust knots | rain 1hr in | rain 24hr in | rain mn in | humidity % | barometer mb |
| 20260509123018 | 51 | 127 | 0.0 | 0.0 | 0.00 | 0.02 | 0.00 | 79 | 1008.0 |
| 20260509121514 | 50 | 126 | 0.0 | 3.5 | 0.00 | 0.02 | 0.00 | 79 | 1007.9 |
| 20260509120056 | 49 | 127 | 1.7 | 4.3 | 0.00 | 0.02 | 0.00 | 78 | 1007.9 |
| 20260509114552 | 48 | 160 | 0.9 | 2.6 | 0.00 | 0.02 | 0.00 | 79 | 1008.0 |
| 20260509113039 | 48 | 160 | 1.7 | 3.5 | 0.00 | 0.02 | 0.00 | 78 | 1008.1 |
| 20260509111536 | 47 | 160 | 1.7 | 4.3 | 0.00 | 0.02 | 0.00 | 77 | 1008.0 |
| 20260509110033 | 47 | 360 | 1.7 | 4.3 | 0.00 | 0.02 | 0.00 | 77 | 1008.0 |
| 20260509104541 | 46 | 360 | 1.7 | 4.3 | 0.00 | 0.02 | 0.00 | 77 | 1007.9 |
| 20260509103031 | 46 | 360 | 1.7 | 3.5 | 0.00 | 0.02 | 0.00 | 76 | 1007.8 |
| 20260509101536 | 46 | 360 | 1.7 | 3.5 | 0.00 | 0.02 | 0.00 | 75 | 1007.8 |
| 20260509100028 | 46 | 360 | 2.6 | 5.2 | 0.00 | 0.02 | 0.00 | 75 | 1007.8 |
| 20260509094532 | 45 | 360 | 2.6 | 4.3 | 0.00 | 0.02 | 0.00 | 76 | 1007.9 |
| 20260509093010 | 45 | 360 | 1.7 | 2.6 | 0.00 | 0.02 | 0.00 | 76 | 1007.8 |
| 20260509091508 | 45 | 360 | 1.7 | 2.6 | 0.00 | 0.02 | 0.00 | 77 | 1007.9 |
| 20260509090056 | 45 | 360 | 1.7 | 3.5 | 0.00 | 0.02 | 0.00 | 76 | 1008.0 |
| 20260509084548 | 45 | 360 | 1.7 | 2.6 | 0.00 | 0.02 | 0.00 | 76 | 1008.1 |
| 20260509083035 | 45 | 360 | 2.6 | 4.3 | 0.00 | 0.02 | 0.00 | 75 | 1008.2 |
| 20260509081547 | 46 | 360 | 1.7 | 3.5 | 0.00 | 0.02 | 0.00 | 74 | 1008.2 |
| 20260509080031 | 46 | 360 | 2.6 | 3.5 | 0.00 | 0.02 | 0.00 | 73 | 1008.4 |
| 20260509074530 | 46 | 360 | 2.6 | 4.3 | 0.00 | 0.02 | 0.00 | 72 | 1008.5 |
| 20260509073040 | 46 | 360 | 2.6 | 4.3 | 0.00 | 0.02 | 0.02 | 73 | 1008.7 |
| 20260509071528 | 46 | 360 | 2.6 | 4.3 | 0.00 | 0.02 | 0.02 | 73 | 1008.7 |
| 20260509070038 | 46 | 360 | 1.7 | 3.5 | 0.00 | 0.02 | 0.02 | 73 | 1008.9 |
| 20260509064525 | 46 | 360 | 2.6 | 4.3 | 0.00 | 0.02 | 0.02 | 72 | 1009.0 |
| 20260509063004 | 47 | 360 | 2.6 | 4.3 | 0.00 | 0.02 | 0.02 | 72 | 1009.1 |
| 20260509061503 | 47 | 360 | 2.6 | 5.2 | 0.00 | 0.02 | 0.02 | 71 | 1009.3 |
| 20260509060056 | 47 | 360 | 3.5 | 5.2 | 0.00 | 0.02 | 0.02 | 73 | 1009.5 |
| 20260509054543 | 47 | 360 | 2.6 | 3.5 | 0.00 | 0.02 | 0.02 | 73 | 1009.6 |
| 20260509053024 | 48 | 360 | 1.7 | 3.5 | 0.00 | 0.02 | 0.02 | 74 | 1009.9 |
| 20260509051523 | 48 | 360 | 1.7 | 3.5 | 0.00 | 0.02 | 0.02 | 73 | 1010.0 |
| 20260509050008 | 48 | 360 | 1.7 | 3.5 | 0.00 | 0.02 | 0.02 | 73 | 1010.0 |
| 20260509044506 | 48 | 360 | 1.7 | 3.5 | 0.00 | 0.02 | 0.02 | 75 | 1010.1 |
| 20260509043050 | 48 | 360 | 1.7 | 3.5 | 0.00 | 0.03 | 0.02 | 74 | 1010.2 |
| 20260509041547 | 48 | 360 | 1.7 | 3.5 | 0.00 | 0.03 | 0.02 | 74 | 1010.3 |
| 20260509040030 | 48 | 360 | 1.7 | 4.3 | 0.00 | 0.03 | 0.02 | 75 | 1010.4 |
| 20260509034530 | 49 | 360 | 2.6 | 3.5 | 0.00 | 0.03 | 0.02 | 75 | 1010.5 |
| 20260509033015 | 48 | 360 | 2.6 | 4.3 | 0.00 | 0.04 | 0.02 | 75 | 1010.6 |
| 20260509031510 | 48 | 360 | 2.6 | 4.3 | 0.00 | 0.04 | 0.02 | 75 | 1010.6 |
| 20260509030055 | 49 | 360 | 3.5 | 5.2 | 0.00 | 0.04 | 0.02 | 73 | 1010.8 |
| 20260509024551 | 49 | 360 | 3.5 | 6.1 | 0.00 | 0.04 | 0.02 | 72 | 1010.8 |
| 20260509023033 | 49 | 360 | 3.5 | 5.2 | 0.00 | 0.07 | 0.02 | 72 | 1010.7 |
| 20260509021532 | 49 | 360 | 3.5 | 4.3 | 0.00 | 0.07 | 0.02 | 71 | 1010.7 |
| 20260509020029 | 49 | 360 | 2.6 | 4.3 | 0.00 | 0.07 | 0.02 | 72 | 1010.8 |
| 20260509014532 | 49 | 360 | 2.6 | 4.3 | 0.00 | 0.07 | 0.02 | 72 | 1010.8 |
| 20260509013059 | 49 | 360 | 1.7 | 2.6 | 0.00 | 0.07 | 0.02 | 72 | 1010.9 |
| 20260509011555 | 49 | 360 | 2.6 | 4.3 | 0.00 | 0.07 | 0.02 | 72 | 1010.8 |
| 20260509010037 | 49 | 360 | 0.0 | 2.6 | 0.00 | 0.07 | 0.02 | 73 | 1010.5 |
| 20260509004537 | 49 | 360 | 2.6 | 5.2 | 0.00 | 0.07 | 0.02 | 72 | 1010.3 |
| 20260509003031 | 49 | 360 | 3.5 | 6.1 | 0.00 | 0.07 | 0.02 | 73 | 1010.2 |
| 20260509001523 | 49 | 360 | 4.3 | 7.0 | 0.00 | 0.07 | 0.02 | 75 | 1010.1 |
| 20260509000022 | 50 | 360 | 6.1 | 7.8 | 0.00 | 0.07 | 0.02 | 73 | 1010.1 |
| 20260508234522 | 50 | 73 | 3.5 | 5.2 | 0.00 | 0.07 | 0.02 | 71 | 1010.0 |
| 20260508233022 | 50 | 360 | 4.3 | 6.1 | 0.00 | 0.07 | 0.02 | 71 | 1009.9 |
| 20260508231521 | 50 | 82 | 3.5 | 5.2 | 0.00 | 0.07 | 0.02 | 70 | 1010.0 |
| 20260508230021 | 50 | 82 | 4.3 | 7.0 | 0.00 | 0.07 | 0.02 | 71 | 1010.1 |
| 20260508224520 | 50 | 73 | 4.3 | 7.0 | 0.00 | 0.07 | 0.02 | 72 | 1010.0 |
| 20260508223015 | 49 | 75 | 3.5 | 6.1 | 0.00 | 0.07 | 0.02 | 74 | 1010.1 |
| 20260508221507 | 49 | 60 | 4.3 | 7.0 | 0.00 | 0.07 | 0.02 | 76 | 1010.1 |
| 20260508220007 | 50 | 77 | 5.2 | 8.7 | 0.00 | 0.07 | 0.02 | 77 | 1010.2 |
| 20260508214514 | 49 | 41 | 1.7 | 5.2 | 0.00 | 0.07 | 0.02 | 72 | 1010.3 |
| 20260508213005 | 49 | 83 | 5.2 | 7.8 | 0.00 | 0.07 | 0.02 | 78 | 1010.4 |
| 20260508211505 | 49 | 34 | 5.2 | 7.8 | 0.00 | 0.07 | 0.02 | 77 | 1010.4 |
| 20260508210002 | 50 | 94 | 2.6 | 5.2 | 0.00 | 0.07 | 0.02 | 74 | 1010.5 |
| 20260508204502 | 50 | 86 | 5.2 | 7.0 | 0.00 | 0.07 | 0.02 | 73 | 1010.7 |
| 20260508203107 | 49 | 82 | 6.1 | 7.8 | 0.00 | 0.07 | 0.02 | 73 | 1010.7 |
| 20260508201546 | 52 | 84 | 4.3 | 7.0 | 0.00 | 0.07 | 0.02 | 68 | 1010.9 |
| 20260508200040 | 52 | 29 | 1.7 | 4.3 | 0.00 | 0.07 | 0.02 | 67 | 1011.2 |
| 20260508194518 | 51 | 47 | 1.7 | 5.2 | 0.00 | 0.07 | 0.02 | 70 | 1011.3 |
| 20260508193016 | 51 | 51 | 1.7 | 5.2 | 0.00 | 0.07 | 0.02 | 71 | 1011.4 |
| 20260508191558 | 50 | 41 | 0.9 | 6.1 | 0.00 | 0.07 | 0.02 | 70 | 1011.6 |
| 20260508190058 | 50 | 31 | 1.7 | 7.0 | 0.00 | 0.07 | 0.02 | 72 | 1011.7 |
| 20260508184542 | 50 | 354 | 1.7 | 7.0 | 0.00 | 0.07 | 0.02 | 70 | 1011.5 |
| 20260508183040 | 51 | 63 | 3.5 | 7.0 | 0.00 | 0.07 | 0.02 | 71 | 1011.6 |
| 20260508181533 | 51 | 37 | 2.6 | 9.6 | 0.00 | 0.07 | 0.02 | 74 | 1011.6 |
| 20260508180026 | 50 | 352 | 1.7 | 7.0 | 0.00 | 0.07 | 0.02 | 72 | 1011.7 |
| 20260508174531 | 50 | 74 | 2.6 | 4.3 | 0.00 | 0.07 | 0.02 | 72 | 1011.8 |
| 20260508173025 | 50 | 9 | 3.5 | 8.7 | 0.00 | 0.07 | 0.02 | 70 | 1011.9 |
| 20260508171526 | 50 | 197 | 3.5 | 9.6 | 0.00 | 0.07 | 0.02 | 63 | 1011.9 |
| 20260508170020 | 50 | 221 | 3.5 | 7.8 | 0.00 | 0.07 | 0.02 | 66 | 1012.0 |
| 20260508164518 | 49 | 186 | 3.5 | 8.7 | 0.00 | 0.07 | 0.02 | 67 | 1012.3 |
| 20260508163018 | 48 | 137 | 3.5 | 8.7 | 0.00 | 0.07 | 0.02 | 69 | 1012.4 |
| 20260508161555 | 48 | 202 | 5.2 | 7.8 | 0.00 | 0.07 | 0.02 | 72 | 1012.6 |
| 20260508160054 | 47 | 187 | 2.6 | 8.7 | 0.00 | 0.07 | 0.02 | 71 | 1012.7 |
| 20260508154536 | 47 | 295 | 1.7 | 6.1 | 0.00 | 0.07 | 0.02 | 74 | 1012.7 |
| 20260508153032 | 46 | 251 | 5.2 | 7.8 | 0.00 | 0.07 | 0.02 | 79 | 1012.7 |
| 20260508151527 | 46 | 198 | 6.1 | 11.3 | 0.00 | 0.07 | 0.02 | 80 | 1012.7 |
| 20260508150027 | 45 | 186 | 6.1 | 9.6 | 0.00 | 0.07 | 0.02 | 83 | 1012.6 |
| 20260508144513 | 45 | 360 | 6.1 | 9.6 | 0.00 | 0.07 | 0.02 | 85 | 1012.6 |
| 20260508143013 | 45 | 226 | 7.0 | 10.4 | 0.00 | 0.07 | 0.02 | 85 | 1012.6 |
| 20260508141512 | 44 | 360 | 6.1 | 10.4 | 0.00 | 0.07 | 0.02 | 86 | 1012.5 |
| 20260508140008 | 44 | 204 | 7.0 | 10.4 | 0.00 | 0.07 | 0.02 | 85 | 1012.3 |
| 20260508134506 | 42 | 360 | 4.3 | 7.8 | 0.00 | 0.07 | 0.02 | 87 | 1012.3 |
| 20260508133006 | 42 | 360 | 6.1 | 13.0 | 0.02 | 0.07 | 0.02 | 87 | 1012.6 |
| 20260508131547 | 42 | 360 | 9.6 | 13.0 | 0.02 | 0.07 | 0.02 | 87 | 1012.6 |
| 20260508130046 | 43 | 360 | 6.1 | 9.6 | 0.02 | 0.07 | 0.02 | 87 | 1012.5 |
| 20260508124530 | 41 | 360 | 7.0 | 8.7 | 0.02 | 0.07 | 0.02 | 91 | 1012.3 |